カタログに戻る

CZ-6A DEB

運用中SSO
NORAD 54896·DEBRIS·🇨🇳 China

打ち上げ Nov 11, 2022 から Taiyuan Satellite Launch Center

Loading…

次のパス (今後24時間)

TLE

最新Source: Space-Track

元期: Sep 14, 2026, 09:39 UTC

1 54896U 22151QH  26257.40246999  .00000307  00000-0  21087-3 0  9999
2 54896  98.8661 245.3184 0065053 114.3181 246.4798 14.05657570194179

AllMySatでCZ-6A DEBをリアルタイム追跡

Download on the App Store